Toledo Metcalf, OH

9:14 AM EDT on April 30, 2017 (GMT -0400)
Metcalf

Weather History for KTDZ - January, 2013

Change the Weather History Date:

Friday, January 25, 2013

  Actual Average (KTOL) Record (KTOL)
Temperature  
Mean Temperature 18 °F -  
Max Temperature 21 °F 32 °F 71 °F (1950)
Min Temperature 16 °F 16 °F -16 °F (1897)
Degree Days  
Heating Degree Days 46    
Moisture  
Dew Point 14 °F    
Average Humidity 79    
Maximum Humidity 93    
Minimum Humidity 62    
Precipitation  
Precipitation 0.01 in - - ()
Sea Level Pressure  
Sea Level Pressure 30.16 in    
Wind  
Wind Speed 6 mph (South)    
Max Wind Speed 12 mph    
Max Gust Speed -    
Visibility 6 miles    
Events Fog , Snow    
Averages and records for this station are not official NWS values.
T = Trace of Precipitation, MM = Missing Value Source: NWS Daily Summary

Daily Weather History Graph

Daily Weather History Graph

Search for Another Location

Airport or City:

Trip Planner

Search our weather history database for the weather conditions in past years. The results will help you decide how hot, cold, wet, or windy it might be!

Date:

Astronomy

Jan. 25, 2013 Rise Set
Actual Time 7:51 AM EST 5:41 PM EST
Civil Twilight 7:21 AM EST 6:11 PM EST
Nautical Twilight 6:48 AM EST 6:44 PM EST
Astronomical Twilight 6:15 AM EST 7:17 PM EST
Moon 4:37 PM EST (1/25) 6:30 AM EST (1/25)
Length of Visible Light 10h 49m
Length of Day
9h 49m
Waxing Gibbous, 98% of the Moon is Illuminated
Jan 25
Waxing Gibbous
Jan 26
Full
Feb 3
Last Quarter
Feb 10
New
Feb 17
First Quarter

Hourly Weather History & Observations

Time (EST) Temp. Windchill Dew Point Humidity Pressure Visibility Wind Dir Wind Speed Gust Speed Precip Events Conditions
12:53 AM 16.0 °F 8.8 °F 8.1 °F 71% 30.51 in 10.0 mi SE 4.6 mph - N/A   Scattered Clouds
1:53 AM 17.1 °F 11.7 °F 8.1 °F 68% 30.49 in 10.0 mi SE 3.5 mph - N/A   Overcast
2:53 AM 17.1 °F 10.0 °F 8.1 °F 68% 30.48 in 10.0 mi ESE 4.6 mph - N/A   Overcast
3:53 AM 17.1 °F 7.6 °F 8.1 °F 68% 30.43 in 10.0 mi SE 6.9 mph - N/A   Overcast
4:53 AM 17.1 °F 8.7 °F 9.0 °F 71% 30.38 in 10.0 mi ESE 5.8 mph - N/A   Overcast
5:53 AM 17.1 °F 8.7 °F 9.0 °F 71% 30.34 in 10.0 mi ESE 5.8 mph - N/A   Overcast
6:53 AM 17.1 °F 5.8 °F 8.1 °F 68% 30.30 in 10.0 mi ESE 9.2 mph - N/A   Overcast
7:53 AM 18.0 °F 9.8 °F 9.0 °F 68% 30.28 in 10.0 mi ESE 5.8 mph - N/A   Overcast
8:53 AM 18.0 °F 6.1 °F 9.0 °F 68% 30.25 in 10.0 mi ESE 10.4 mph - N/A   Overcast
9:53 AM 19.0 °F 9.0 °F 8.1 °F 62% 30.23 in 5.0 mi SE 8.1 mph - 0.00 in Snow Light Snow
9:57 AM 19.4 °F 7.9 °F 8.6 °F 63% 30.20 in 2.0 mi SE 10.4 mph - 0.00 in Snow Light Snow
10:02 AM 17.6 °F 5.7 °F 10.4 °F 73% 30.20 in 1.0 mi SE 10.4 mph - 0.00 in Snow Light Snow
10:10 AM 17.6 °F 5.0 °F 10.4 °F 73% 30.21 in 0.5 mi SSE 11.5 mph - 0.00 in Snow Snow
10:22 AM 17.6 °F 6.4 °F 12.2 °F 79% 30.20 in 0.5 mi SSE 9.2 mph - 0.00 in Snow Snow
10:53 AM 18.0 °F 8.7 °F 14.0 °F 84% 30.23 in 0.5 mi SSE 6.9 mph - 0.00 in Fog , Snow Snow
2:46 PM 19.4 °F 10.4 °F 14.0 °F 80% 30.05 in 8.0 mi South 6.9 mph - 0.00 in   Overcast
2:53 PM 19.9 °F 12.1 °F 14.0 °F 78% 30.07 in 4.0 mi South 5.8 mph - 0.00 in   Haze
3:53 PM 19.9 °F 12.1 °F 14.0 °F 78% 30.06 in 5.0 mi South 5.8 mph - N/A   Haze
4:46 PM 19.4 °F 11.5 °F 14.0 °F 80% 30.04 in 9.0 mi SSW 5.8 mph - N/A   Overcast
4:53 PM 19.9 °F 11.1 °F 14.0 °F 78% 30.06 in 9.0 mi SSW 6.9 mph - N/A   Overcast
5:39 PM 19.4 °F 10.4 °F 14.0 °F 80% 30.04 in 10.0 mi SSW 6.9 mph - N/A   Overcast
5:53 PM 19.9 °F 12.1 °F 15.1 °F 81% 30.06 in 10.0 mi South 5.8 mph - N/A   Overcast
6:53 PM 21.0 °F 14.6 °F 15.1 °F 78% 30.07 in 10.0 mi SSW 4.6 mph - N/A   Overcast
7:04 PM 21.2 °F 14.9 °F 15.8 °F 80% 30.04 in 10.0 mi SSW 4.6 mph - N/A   Overcast
7:53 PM 21.0 °F 16.2 °F 16.0 °F 81% 30.07 in 7.0 mi SSW 3.5 mph - N/A   Overcast
8:04 PM 21.2 °F 16.4 °F 15.8 °F 80% 30.04 in 4.0 mi South 3.5 mph - 0.00 in Snow Light Snow
8:18 PM 21.2 °F 16.4 °F 17.6 °F 86% 30.05 in 2.5 mi SSW 3.5 mph - 0.00 in Snow Light Snow
8:43 PM 21.2 °F 16.4 °F 17.6 °F 86% 30.05 in 2.0 mi SSW 3.5 mph - 0.00 in Snow Light Snow
8:50 PM 21.2 °F 13.6 °F 17.6 °F 86% 30.05 in 1.5 mi SSW 5.8 mph - 0.00 in Snow Light Snow
8:53 PM 21.0 °F 14.6 °F 18.0 °F 88% 30.08 in 1.5 mi SSW 4.6 mph - 0.00 in Snow Light Snow
9:13 PM 21.2 °F 14.9 °F 17.6 °F 86% 30.05 in 2.0 mi SSW 4.6 mph - 0.00 in Snow Light Snow
9:29 PM 21.2 °F 14.9 °F 17.6 °F 86% 30.06 in 1.8 mi SW 4.6 mph - 0.00 in Snow Light Snow
9:40 PM 21.2 °F 13.6 °F 17.6 °F 86% 30.06 in 2.0 mi SW 5.8 mph - 0.00 in Snow Light Snow
9:53 PM 21.0 °F 13.4 °F 18.0 °F 88% 30.09 in 2.0 mi SW 5.8 mph - 0.00 in Snow Light Snow
10:23 PM 21.2 °F 13.6 °F 17.6 °F 86% 30.06 in 1.8 mi SW 5.8 mph - 0.00 in Snow Light Snow
10:41 PM 21.2 °F 14.9 °F 17.6 °F 86% 30.05 in 2.0 mi SSW 4.6 mph - 0.00 in Snow Light Snow
10:53 PM 21.0 °F 13.4 °F 18.0 °F 88% 30.08 in 2.5 mi SSW 5.8 mph - 0.00 in Snow Light Snow
11:12 PM 21.2 °F 13.6 °F 19.4 °F 93% 30.05 in 3.0 mi SSW 5.8 mph - 0.00 in Snow Light Snow
11:53 PM 21.9 °F 13.4 °F 19.0 °F 89% 30.09 in 3.0 mi SSW 6.9 mph - 0.01 in Snow Light Snow